[[{"header":{"parameterUnit":"m.s-1","parameterCategory":1,"la1":30.2991,"la2":30.254,"lo1":-89.0895,"lo2":-89.0444,"dy":0.0017,"dx":0.0017,"nx":28,"ny":28,"refTime":"2024-07-24T09:00:00:Z","depth":0,"parameterNumber":2,"parameterNumberName":"U-component_of_WINDS"},"data":[0,0,0,0,0,0,0,0,0,0,0,0,0,0,0,0,0,0,0,0,0,0,0,0,0,0,0,0,0,0,0,0,0,0,0,0,0,0,0,0,0,0,0,0,0,0,0,0,0,0,0,0,0,0,0,0,0,0,-1.3676,-1.3676,0,-1.3696,-1.3697,-1.3697,-1.3702,-1.3702,-1.3702,-1.3702,-1.3723,-1.3723,-1.3724,0,0,0,0,0,0,0,0,0,0,0,0,0,-1.364,-1.3641,-1.3676,-1.3676,-1.3676,-1.3696,-1.3697,-1.3697,-1.3702,-1.3702,-1.3702,-1.3701,-1.3722,-1.3723,-1.3724,0,0,0,0,0,0,0,0,0,0,0,0,0,-1.3658,-1.3641,-1.3676,-1.3681,-1.3682,-1.3696,-1.3697,-1.3697,-1.3702,-1.3702,-1.3702,-1.3701,-1.3722,-1.3723,-1.3724,-1.3734,0,0,-1.3727,-1.3728,0,0,0,0,0,0,0,0,-1.3657,-1.3659,-1.368,-1.3681,-1.3682,-1.3696,-1.3692,-1.3709,-1.3702,-1.3694,-1.3702,-1.3701,-1.3714,-1.3716,-1.372,-1.3735,-1.3736,-1.3727,-1.3728,-1.3728,-1.3729,0,0,0,0,0,0,0,-1.3656,-1.3658,-1.3684,-1.368,-1.3681,-1.3683,-1.3685,-1.3695,-1.3705,-1.3695,-1.3695,-1.3698,-1.3714,-1.3719,-1.372,-1.3737,-1.3727,-1.3728,-1.3729,-1.3729,-1.3762,-1.3762,0,0,0,0,0,0,-1.3653,-1.3657,-1.3683,-1.3684,-1.3668,-1.3683,-1.3686,-1.3692,-1.3705,-1.3707,-1.3698,-1.3698,-1.3717,-1.3719,-1.3721,-1.3734,-1.3728,-1.3729,-1.373,-1.3762,-1.3762,-1.3762,0,0,0,0,0,0,-1.3653,-1.3656,-1.3682,-1.3671,-1.3674,-1.3684,-1.3691,-1.3692,-1.3697,-1.3707,-1.3709,-1.3701,-1.3717,-1.372,-1.3731,-1.3735,-1.373,-1.3731,-1.3761,-1.3762,-1.3762,-1.376,0,0,0,0,0,0,-1.3652,-1.3655,-1.3659,-1.3671,-1.3675,-1.3692,-1.3691,-1.3693,-1.3699,-1.3699,-1.371,-1.3712,-1.3717,-1.373,-1.3732,-1.3736,-1.3731,-1.3761,-1.3762,-1.3762,-1.376,-1.3761,-1.3761,0,0,0,0,0,-1.365,-1.3658,-1.3659,-1.3663,-1.368,-1.3692,-1.3694,-1.37,-1.3699,-1.3703,-1.371,-1.3712,-1.3734,-1.3731,-1.3734,-1.3738,-1.3761,-1.3761,-1.3762,-1.376,-1.3761,-1.3761,0,0,0,0,0,0,-1.3646,-1.3659,-1.3661,-1.3673,-1.3681,-1.3693,-1.3698,-1.3701,-1.3709,-1.3709,-1.3716,-1.3719,-1.373,-1.3735,-1.3731,-1.3749,-1.3748,-1.3749,-1.3745,-1.3746,-1.3746,-1.3744,-1.3732,0,0,0,0,0,-1.3646,-1.3655,-1.3666,-1.3675,-1.368,-1.3688,-1.3693,-1.3697,-1.3706,-1.371,-1.3717,-1.3726,-1.3735,-1.3741,-1.375,-1.3761,-1.3764,-1.3766,-1.3766,-1.3767,-1.3767,-1.3774,-1.3775,-1.3764,-1.3764,-1.3764,0,0,-1.3647,-1.3656,-1.3661,-1.3675,-1.3682,-1.369,-1.3691,-1.37,-1.3707,-1.3711,-1.3722,-1.3728,-1.3738,-1.375,-1.3755,-1.3755,-1.3771,-1.3767,-1.3768,-1.3768,-1.3775,-1.3776,-1.3777,-1.3765,-1.3765,-1.3764,0,0,-1.3653,-1.3661,-1.3669,-1.3676,-1.3687,-1.3693,-1.3695,-1.3706,-1.371,-1.3722,-1.3725,-1.3733,-1.3749,-1.3756,-1.3761,-1.3771,-1.3773,-1.3774,-1.3776,-1.3783,-1.3784,-1.3784,-1.3788,-1.3789,-1.3775,-1.3775,-1.3775,0,-1.3653,-1.3666,-1.3673,-1.3682,-1.3688,-1.3693,-1.3702,-1.3708,-1.3721,-1.3726,-1.3725,-1.3745,-1.3752,-1.3765,-1.3768,-1.3772,-1.3775,-1.3772,-1.3783,-1.3784,-1.3785,-1.3788,-1.3789,-1.3775,-1.3775,-1.3775,-1.3775,0,-1.3665,-1.3675,-1.368,-1.3693,-1.37,-1.3708,-1.3717,-1.3723,-1.3726,-1.3732,-1.3744,-1.3753,-1.3764,-1.3767,-1.3771,-1.3781,-1.3781,-1.3781,-1.378,-1.3786,-1.3789,-1.379,-1.3775,-1.3775,-1.3775,-1.3775,0,0,-1.3668,-1.3685,-1.3687,-1.3693,-1.3706,-1.3713,-1.3722,-1.3733,-1.3738,-1.3747,-1.3755,-1.3768,-1.3769,-1.3776,-1.378,-1.3786,-1.3793,-1.3786,-1.3786,-1.3787,-1.3805,-1.3804,-1.3805,-1.3795,-1.3795,-1.3795,-1.3804,0,-1.3676,-1.3692,-1.3699,-1.3712,-1.3721,-1.3726,-1.3734,-1.3743,-1.3749,-1.3757,-1.3764,-1.3773,-1.3774,-1.3778,-1.3784,-1.3791,-1.3797,-1.379,-1.3802,-1.3802,-1.3799,-1.3807,-1.3806,-1.3814,-1.3805,-1.3806,-1.3806,0,-1.3686,-1.3696,-1.371,-1.3722,-1.3726,-1.3733,-1.3743,-1.3751,-1.3761,-1.3765,-1.3773,-1.3777,-1.3787,-1.3786,-1.38,-1.3795,-1.38,-1.3805,-1.3805,-1.3806,-1.3804,-1.3808,-1.3817,-1.3818,-1.3808,-1.3808,-1.3808,0,-1.3687,-1.3703,-1.3714,-1.3719,-1.3733,-1.3738,-1.3744,-1.3754,-1.376,-1.3769,-1.3774,-1.3784,-1.379,-1.3798,-1.3805,-1.3803,-1.3818,-1.3817,-1.3822,-1.3822,-1.3824,-1.3824,-1.3834,-1.3829,-1.3829,-1.3829,-1.3828,0,-1.3694,-1.3702,-1.3714,-1.3721,-1.373,-1.3738,-1.3748,-1.3754,-1.3763,-1.3771,-1.3777,-1.3784,-1.3793,-1.3802,-1.3808,-1.3818,-1.3821,-1.3824,-1.3826,-1.3824,-1.3823,-1.3827,-1.3826,-1.3829,-1.3829,-1.3829,-1.3829,0,-1.3696,-1.3704,-1.3716,-1.3729,-1.3732,-1.3739,-1.3749,-1.3756,-1.3763,-1.3773,-1.3776,-1.3786,-1.3796,-1.3804,-1.3818,-1.3822,-1.3833,-1.3835,-1.383,-1.383,-1.3834,-1.3834,-1.3847,-1.3849,-1.3842,-1.3842,-1.3842,0,-1.37,-1.3706,-1.372,-1.3726,-1.3732,-1.3741,-1.3747,-1.3756,-1.3762,-1.3774,-1.378,-1.3791,-1.38,-1.3816,-1.3825,-1.3836,-1.3837,-1.3841,-1.3839,-1.3837,-1.3837,-1.3837,-1.3837,-1.3841,-1.3841,-1.3841,-1.3841,0,-1.3705,-1.3709,-1.3718,-1.3729,-1.3737,-1.3746,-1.3755,-1.3759,-1.3769,-1.3776,-1.3787,-1.3794,-1.3809,-1.3819,-1.3831,-1.3837,-1.3841,-1.3842,-1.3844,-1.3841,-1.3838,-1.384,-1.383,-1.3842,-1.3842,-1.3842,-1.3842,-1.3842,-1.3708,-1.3714,-1.3725,-1.3735,-1.3743,-1.3751,-1.3758,-1.3766,-1.3775,-1.3787,-1.3792,-1.3803,-1.3813,-1.3829,-1.3836,-1.3845,-1.3845,-1.3847,-1.3848,-1.3848,-1.3848,-1.3837,-1.3847,-1.3847,-1.3847,-1.3847,-1.3847,0,-1.3714,-1.3721,-1.3731,-1.3743,-1.3751,-1.3754,-1.3764,-1.3771,-1.3781,-1.379,-1.3799,-1.3812,-1.3823,-1.3832,-1.3844,-1.3849,-1.3851,-1.3852,-1.3851,-1.3853,-1.3847,-1.3845,-1.385,-1.385,-1.385,-1.385,-1.385,-1.385,-1.3718,-1.3729,-1.3734,-1.3749,-1.3756,-1.3767,-1.3773,-1.378,-1.3788,-1.3802,-1.3811,-1.3817,-1.3827,-1.3839,-1.3849,-1.3852,-1.3856,-1.3856,-1.3859,-1.3853,-1.3853,-1.3853,-1.385,-1.3857,-1.3857,-1.3863,-1.3864,-1.3864]},{"header":{"parameterUnit":"m.s-1","parameterCategory":1,"la1":30.2991,"la2":30.254,"lo1":-89.0895,"lo2":-89.0444,"dy":0.0017,"dx":0.0017,"nx":28,"ny":28,"refTime":"2024-07-24T09:00:00:Z","depth":0,"parameterNumber":3,"parameterNumberName":"V-component_of_WINDS"},"data":[0,0,0,0,0,0,0,0,0,0,0,0,0,0,0,0,0,0,0,0,0,0,0,0,0,0,0,0,0,0,0,0,0,0,0,0,0,0,0,0,0,0,0,0,0,0,0,0,0,0,0,0,0,0,0,0,0,0,2.8172,2.8173,0,2.8274,2.8275,2.8276,2.8229,2.8226,2.8224,2.8221,2.832,2.8325,2.833,0,0,0,0,0,0,0,0,0,0,0,0,0,2.793,2.7935,2.8172,2.8173,2.8174,2.8273,2.8275,2.8276,2.8229,2.8226,2.8223,2.822,2.8319,2.8325,2.8331,0,0,0,0,0,0,0,0,0,0,0,0,0,2.8033,2.7936,2.8171,2.8163,2.8163,2.8273,2.8275,2.8276,2.823,2.8226,2.8222,2.8218,2.8317,2.8324,2.8331,2.8454,0,0,2.8354,2.8358,0,0,0,0,0,0,0,0,2.8028,2.8042,2.8163,2.8164,2.8164,2.8235,2.8226,2.8336,2.8231,2.8204,2.8221,2.8217,2.8295,2.8304,2.8331,2.8459,2.8463,2.8355,2.836,2.8363,2.8365,0,0,0,0,0,0,0,2.8021,2.8038,2.8212,2.8164,2.8165,2.8152,2.8162,2.8246,2.8269,2.8206,2.8203,2.8216,2.8294,2.8324,2.8333,2.8465,2.8355,2.8362,2.8366,2.8369,2.8696,2.87,0,0,0,0,0,0,2.8014,2.8032,2.8208,2.8215,2.8085,2.8159,2.8171,2.8216,2.8268,2.8273,2.8219,2.8213,2.8313,2.8324,2.8336,2.8482,2.8363,2.837,2.8374,2.8692,2.8697,2.8702,0,0,0,0,0,0,2.8009,2.8031,2.8204,2.8123,2.8144,2.8167,2.8218,2.822,2.8249,2.8278,2.8282,2.8246,2.831,2.8326,2.8425,2.8485,2.8373,2.838,2.8687,2.8694,2.8699,2.8777,0,0,0,0,0,0,2.8003,2.8029,2.8078,2.8124,2.8148,2.8294,2.8222,2.8224,2.8263,2.8257,2.8304,2.8308,2.8309,2.8414,2.8433,2.8494,2.8386,2.8682,2.869,2.8697,2.8769,2.8785,2.8798,0,0,0,0,0,2.7994,2.8095,2.8081,2.8102,2.821,2.8298,2.8311,2.8311,2.8268,2.8316,2.8334,2.8307,2.8476,2.8425,2.8445,2.8509,2.8678,2.8688,2.8697,2.8762,2.8782,2.8798,0,0,0,0,0,0,2.8054,2.8101,2.8086,2.8205,2.8248,2.8289,2.835,2.8332,2.8386,2.8378,2.8373,2.8384,2.8487,2.8508,2.8451,2.863,2.857,2.8584,2.8613,2.8631,2.8646,2.8639,2.8392,0,0,0,0,0,2.8081,2.815,2.8187,2.8288,2.831,2.8327,2.8365,2.8361,2.8404,2.8422,2.8447,2.8489,2.8551,2.8592,2.8651,2.8771,2.878,2.8825,2.884,2.8852,2.8864,2.8927,2.8947,2.8732,2.8732,2.8732,0,0,2.8137,2.8172,2.8215,2.8301,2.8334,2.8403,2.8342,2.8419,2.847,2.8433,2.8529,2.8549,2.8595,2.8705,2.8754,2.8725,2.8925,2.8864,2.8873,2.8879,2.8938,2.8959,2.8977,2.8739,2.8738,2.8737,0,0,2.8276,2.8309,2.8397,2.8431,2.8482,2.8492,2.8513,2.8557,2.8569,2.8666,2.8639,2.8698,2.8806,2.884,2.8871,2.902,2.8996,2.9039,2.9116,2.9178,2.9194,2.9209,2.9261,2.928,2.9051,2.9051,2.9051,0,2.8339,2.8445,2.8444,2.8522,2.856,2.8531,2.8618,2.865,2.8717,2.8742,2.8709,2.8843,2.8872,2.8988,2.9025,2.9051,2.9073,2.9034,2.9192,2.9207,2.9221,2.9271,2.929,2.9056,2.9055,2.9055,2.9054,0,2.8519,2.8593,2.8657,2.8724,2.8768,2.885,2.886,2.8904,2.8896,2.8908,2.9005,2.9039,2.9104,2.9131,2.9123,2.9246,2.9226,2.9193,2.9133,2.9247,2.9293,2.9312,2.9063,2.9061,2.906,2.9058,0,0,2.87,2.8764,2.8787,2.8816,2.8869,2.8925,2.9004,2.9069,2.9107,2.9153,2.9218,2.931,2.9279,2.9314,2.9309,2.9363,2.9477,2.9323,2.9324,2.935,2.9613,2.9637,2.9659,2.9462,2.9465,2.9468,2.9608,0,2.8841,2.8983,2.8984,2.9114,2.918,2.9152,2.9221,2.926,2.9273,2.933,2.9343,2.9408,2.9363,2.9384,2.9436,2.9453,2.953,2.9442,2.9521,2.9524,2.951,2.9684,2.971,2.9841,2.9627,2.963,2.9632,0,2.9026,2.9079,2.9217,2.9258,2.9286,2.9349,2.9407,2.9462,2.9504,2.9509,2.9548,2.9535,2.9613,2.9551,2.9658,2.9598,2.963,2.9643,2.9647,2.9655,2.9585,2.9695,2.9883,2.9902,2.9661,2.9658,2.9656,0,2.9142,2.9248,2.9344,2.9369,2.9421,2.9465,2.9488,2.9527,2.9565,2.9614,2.9639,2.9697,2.9728,2.9772,2.9774,2.9728,2.9881,2.9819,2.9886,2.9886,2.992,2.9918,3.0115,2.9941,2.9941,2.9941,2.994,0,2.9301,2.9385,2.9397,2.9455,2.9548,2.9546,2.9638,2.9656,2.9691,2.9751,2.9729,2.9786,2.9784,2.9841,2.9842,2.993,2.9944,2.9949,2.9949,2.9951,2.9951,2.9972,2.9963,2.9946,2.9945,2.9944,2.9943,0,2.9447,2.9458,2.956,2.96,2.9612,2.9679,2.9711,2.9766,2.9777,2.9853,2.987,2.9887,2.9952,2.9958,3.0033,3.0034,3.0139,3.0129,3.0126,3.0124,3.0191,3.0184,3.0409,3.0437,3.0245,3.0247,3.0248,0,2.9547,2.9612,2.9658,2.9698,2.9724,2.9787,2.9826,2.9826,2.9866,2.9918,2.9966,3.0029,3.008,3.0185,3.0202,3.0259,3.025,3.0324,3.0258,3.0258,3.025,3.0246,3.0251,3.0337,3.0339,3.0341,3.0342,0,2.9723,2.9725,2.9783,2.9843,2.989,2.9936,2.9979,3.0012,3.0016,3.0063,3.013,3.0169,3.0246,3.0309,3.0364,3.0385,3.0364,3.0363,3.0382,3.0385,3.038,3.0383,3.016,3.0358,3.0356,3.0355,3.0355,3.0354,2.9849,2.9905,2.9946,3.001,3.0043,3.0083,3.0136,3.0154,3.021,3.0274,3.0269,3.0343,3.038,3.0453,3.0478,3.0534,3.0509,3.0536,3.0543,3.0549,3.0556,3.0371,3.0544,3.0544,3.0544,3.0543,3.0543,0,3.0024,3.0049,3.0108,3.0169,3.0219,3.0196,3.0242,3.0285,3.0351,3.0388,3.0439,3.0515,3.0575,3.0596,3.0654,3.0695,3.0686,3.071,3.0707,3.0711,3.0576,3.0554,3.0715,3.0715,3.0715,3.0715,3.0715,3.0715,3.0121,3.0213,3.0219,3.0326,3.035,3.0423,3.0451,3.0487,3.0517,3.0604,3.0654,3.0668,3.0699,3.0758,3.0811,3.0816,3.0838,3.0865,3.0866,3.0739,3.0721,3.0705,3.0684,3.087,3.087,3.0996,3.0998,3.0998]}]]